Vorticity
nan nan nan nan nan nan nan nan nan nan nan nan nan nan nan nan nan nan nan nan nan nan nan nan nan nan nan nan nan nan nan nan nan nan nan nan nan nan nan nan nan nan nan nan nan
nan 7 7 7 7 7 7 7 8 7 7 8 8 9 8 14 20 6 12 11 7 5 5 4 3 12 15 11 15 5 10 10 9 6 13 10 10 7 5 9 14 13 7 7 nan
nan 7 6 7 7 7 7 7 7 7 8 8 8 9 10 14 15 19 18 6 4 2 3 6 8 8 11 11 11 9 8 8 6 6 6 8 12 21 12 5 9 7 5 3 nan
nan 6 6 6 6 7 7 7 7 8 8 8 9 10 16 14 6 16 14 9 3 4 6 6 6 8 7 12 9 11 9 8 2 9 3 4 9 10 12 15 10 5 4 6 nan
nan 7 6 6 6 7 7 8 7 7 8 9 9 13 16 11 11 12 6 5 2 7 6 3 4 3 7 13 11 6 9 5 11 10 6 4 7 8 8 11 9 7 5 6 nan
nan 6 6 6 6 7 8 8 7 7 9 10 10 14 11 6 18 10 3 4 6 3 4 4 5 15 14 4 14 12 6 -2 14 -1 4 4 8 9 5 8 7 6 8 3 nan
nan 7 7 7 7 7 8 8 7 8 11 11 13 12 9 6 4 11 4 2 6 3 6 5 6 10 11 13 8 10 -1 -1 2 4 5 6 4 4 4 10 11 13 7 3 nan
nan 8 7 7 8 8 8 7 9 12 15 15 12 10 7 13 9 6 6 5 6 6 4 3 10 9 13 5 4 1 2 11 -1 9 5 8 4 -0 4 9 9 1 -6 9 nan
nan 8 7 8 8 8 8 9 19 21 17 11 8 8 6 10 16 7 9 6 6 5 6 8 9 6 9 11 5 6 5 1 16 9 5 5 8 6 6 6 9 12 -2 -3 nan
nan 9 8 7 7 8 17 28 22 20 16 6 4 7 16 9 10 8 8 8 5 7 8 10 8 9 13 17 10 -0 2 8 3 2 13 0 3 16 11 9 3 7 13 -2 nan
nan 6 6 7 8 10 19 26 12 10 12 8 2 -2 5 13 9 9 9 8 6 8 8 6 7 12 10 8 4 11 11 6 6 7 13 6 -0 -2 2 16 20 10 10 9 nan
nan 7 7 7 9 20 17 4 1 5 16 11 4 6 -1 12 13 11 8 6 8 6 5 9 10 9 -3 2 13 8 12 11 11 18 10 16 14 11 5 3 21 13 9 6 nan
nan 7 7 7 27 28 11 0 3 9 12 17 20 11 11 14 7 7 8 9 6 6 8 8 6 7 -1 6 9 13 9 7 9 10 7 10 14 14 6 8 14 23 18 9 nan
nan 8 5 22 26 10 10 12 12 8 12 21 16 10 10 9 11 12 8 6 6 8 8 4 19 2 -1 12 8 17 10 4 11 9 11 3 10 3 4 13 7 11 15 13 nan
nan 10 15 20 11 5 0 8 16 14 13 21 13 9 16 5 5 12 10 10 8 4 7 7 14 8 12 0 9 10 8 8 7 10 10 5 13 4 7 12 8 2 9 10 nan
nan 8 18 18 12 4 3 12 13 11 10 12 12 12 11 5 1 9 12 10 11 9 4 13 -1 3 10 14 15 3 9 8 11 8 6 14 5 8 5 1 5 11 8 14 nan
nan 12 16 9 4 3 18 18 9 5 12 13 9 11 9 8 11 6 11 8 5 9 10 14 10 12 2 7 12 11 9 8 8 12 11 12 6 19 8 3 7 4 14 15 nan
nan 29 27 10 4 4 10 11 9 10 10 9 15 10 9 8 11 7 7 9 8 5 9 10 9 4 9 14 8 9 10 7 8 5 10 6 12 25 24 15 11 10 13 8 nan
nan 30 11 15 12 7 11 9 8 -2 -2 21 19 7 7 8 11 12 9 10 7 9 6 5 12 7 7 10 5 7 12 13 3 4 14 9 5 8 24 18 11 13 8 5 nan
nan 13 16 20 12 6 8 7 -0 -3 3 12 12 13 10 10 7 9 11 7 9 8 7 1 11 11 15 14 9 12 0 5 11 16 8 8 7 6 7 15 9 6 5 9 nan
nan 12 20 13 2 6 8 7 8 4 6 9 5 5 8 18 15 6 7 12 12 8 7 8 6 5 15 15 11 3 9 7 15 8 8 9 7 9 8 4 5 12 16 11 nan
nan 14 11 4 5 8 6 6 3 5 12 11 8 8 5 8 20 17 8 13 12 11 8 11 4 15 8 10 14 9 8 6 4 5 12 11 9 9 13 8 3 -0 8 12 nan
nan 14 12 6 5 7 8 7 3 7 15 7 9 8 7 8 7 15 19 12 14 18 12 11 5 5 10 18 16 10 7 8 2 12 10 8 10 10 9 10 7 3 1 11 nan
nan 13 13 8 6 2 8 11 17 17 9 5 6 9 12 12 9 6 17 17 13 11 9 15 14 12 8 5 4 13 10 7 8 7 14 7 10 10 6 8 14 11 13 17 nan
nan 10 8 4 6 12 11 8 11 17 21 10 8 8 7 8 10 9 17 22 12 3 6 6 6 8 8 9 6 10 12 9 14 8 8 14 12 14 13 9 2 17 30 10 nan
nan 7 8 8 8 12 17 18 10 10 15 17 13 5 7 12 13 12 9 9 6 11 14 5 11 10 13 13 10 3 3 18 14 16 18 13 11 18 11 9 10 16 17 6 nan
nan nan nan nan nan nan nan nan nan nan nan nan nan nan nan nan nan nan nan nan nan nan nan nan nan nan nan nan nan nan nan nan nan nan nan nan nan nan nan nan nan nan nan nan nan
CAPE
5 5 4 3 2 3 3 2 2 2 2 1 1 2 2 0 0 0 0 0 0 0 0 0 0 0 0 0 0 2 2 32 133 183 434 381 292 365 458 170 167 53 0 0 0
0 0 0 1 0 0 1 4 2 1 1 1 1 1 1 0 0 0 0 24 0 0 0 0 0 0 0 0 2 8 48 25 5 127 113 358 520 453 311 237 203 60 0 0 0
0 0 0 0 0 0 1 2 2 1 1 1 1 2 1 0 0 0 94 135 0 0 0 0 0 0 0 0 2 58 64 12 22 38 74 159 219 562 407 236 202 61 3 0 0
0 0 0 0 0 0 1 2 2 2 1 1 0 1 0 0 0 0 576 294 0 0 0 0 0 0 0 0 3 66 77 62 45 40 152 536 537 567 435 293 229 77 21 0 0
0 0 0 1 0 1 1 3 2 1 1 0 0 1 0 0 0 0 320 458 0 0 0 0 0 0 0 7 4 27 115 101 262 225 461 583 534 542 325 313 224 90 43 27 5
3 0 0 0 0 1 1 2 2 1 0 0 0 0 0 0 0 0 0 0 0 0 0 0 0 0 8 9 19 6 143 273 375 409 423 567 516 330 228 252 256 96 40 47 81
0 0 0 0 1 3 2 2 2 0 0 0 0 0 0 0 0 0 0 0 0 0 0 0 0 0 0 21 91 104 207 364 456 389 161 0 0 357 128 278 315 192 551 374 280
0 1 3 0 2 4 3 1 1 0 0 0 0 0 0 0 0 0 0 0 0 0 0 0 0 0 0 1 92 95 15 29 258 364 216 42 0 0 0 108 328 574 523 173 61
0 1 0 0 2 2 1 1 0 0 0 0 0 0 0 0 0 0 0 0 0 0 0 0 0 0 0 4 42 34 6 16 89 83 153 181 0 0 15 57 537 599 5 56 192
1 2 1 1 1 1 1 0 0 0 0 0 0 0 0 0 0 0 0 0 0 0 0 7 2 1 0 1 0 8 0 73 22 32 148 141 22 0 9 166 712 501 33 25 21
0 0 0 0 0 1 0 0 0 0 0 0 0 0 0 0 0 0 0 0 0 4 47 70 47 15 9 9 4 74 4 0 19 17 448 296 206 74 35 19 454 372 81 135 25
0 0 0 0 0 0 0 0 0 0 0 0 0 0 0 0 0 0 0 0 0 3 66 69 43 28 46 31 51 46 32 3 17 48 26 283 237 147 0 38 493 537 505 193 242
0 0 0 0 0 0 0 0 0 0 0 0 0 0 0 0 0 0 0 0 3 2 44 71 67 88 67 6 102 89 26 2 0 19 0 35 16 541 440 188 431 586 839 530 456
0 0 0 1 0 0 0 0 0 0 0 0 0 0 0 0 0 0 0 0 0 12 27 80 70 79 6 0 36 3 15 11 42 19 54 0 26 193 30 7 356 429 751 879 702
0 0 0 1 0 0 0 0 0 0 0 0 0 0 0 0 0 0 0 0 0 4 47 43 45 61 62 21 40 11 29 0 0 0 35 0 2 1 77 80 155 31 120 797 700
0 0 0 0 0 0 0 0 0 0 0 0 0 0 0 0 0 0 0 0 0 0 0 41 51 24 60 75 45 37 17 1 0 0 0 1 3 38 60 0 14 0 140 523 496
0 0 0 0 0 0 0 0 0 0 0 0 0 0 0 0 0 0 0 0 0 0 0 0 1 21 93 88 20 60 0 0 1 0 0 0 1 68 1 27 0 14 197 903 807
0 0 0 0 0 0 0 0 0 0 0 0 0 0 0 0 0 0 0 0 0 0 0 0 0 0 7 11 86 3 0 0 0 0 45 13 576 457 103 80 1 337 948 895 797
0 0 0 0 0 0 0 0 0 0 0 0 0 0 0 0 0 0 0 0 0 0 0 0 0 0 0 0 0 0 0 0 0 0 3 610 628 575 538 742 913 825 805 715 1038
0 0 0 0 0 0 0 0 0 0 0 0 0 0 0 0 0 0 0 0 0 0 0 0 0 0 0 0 0 0 0 0 0 0 347 759 573 704 646 779 871 920 959 746 2054
0 0 0 0 0 0 0 0 0 0 0 0 0 0 0 0 0 0 0 0 0 0 0 0 0 0 0 0 0 0 0 0 0 0 5 140 174 86 417 55 315 161 1346 914 2054
0 0 0 0 0 0 0 0 0 0 0 0 0 0 0 0 0 0 0 0 0 0 0 0 0 0 0 0 0 0 0 0 0 0 2 97 224 131 154 546 736 752 535 1412 1627
0 0 0 0 0 0 0 0 0 0 0 0 0 0 0 0 0 8 1 0 0 0 0 0 0 0 0 0 0 0 0 0 0 0 23 43 138 147 183 47 0 0 86 1328 960
0 2 2 0 0 0 0 0 0 0 0 0 0 0 0 0 0 0 15 0 0 0 0 0 0 0 0 0 0 0 0 0 0 0 35 20 106 0 65 64 69 0 0 1100 568
0 3 8 10 0 0 0 0 0 3 0 0 0 0 0 0 11 59 297 0 0 0 0 0 0 0 0 0 0 0 0 0 0 0 8 66 6 0 12 155 964 216 1266 946 563
0 0 0 0 0 0 2 0 0 0 3 0 0 0 0 0 5 444 500 225 235 9 0 0 0 0 0 0 0 0 0 4 3 0 0 70 46 22 2 2 192 425 1651 1161 531
0 0 0 0 0 0 90 48 1 38 118 16 60 2 0 149 359 274 297 127 128 75 0 0 0 0 0 0 0 0 75 85 2 54 16 152 101 39 3 27 213 1567 1906 1232 558